Date,TemperatureHighF,TemperatureAvgF,TemperatureLowF,DewpointHighF,DewpointAvgF,DewpointLowF,HumidityHigh,HumidityAvg,HumidityLow,PressureMaxIn,PressureMinIn,WindSpeedMaxMPH,WindSpeedAvgMPH,GustSpeedMaxMPH,PrecipitationSumIn
2013-3-1,27.1,23.9,20.1,20.0,16.4,11.6,78,72,66,30.04,30.04,8,5,8,0.00
2013-3-2,48.0,28.9,10.7,25.7,16.7,0.3,87,63,38,30.04,30.04,8,0,8,0.00
2013-3-3,48.7,38.9,31.8,33.2,25.6,20.7,77,59,51,30.04,30.04,6,1,6,0.00
2013-3-4,31.6,28.0,22.1,25.8,23.2,17.7,83,82,77,30.04,30.04,5,0,5,0.00
2013-3-5,29.1,27.5,22.1,24.5,22.9,17.7,83,83,83,30.04,30.04,0,0,0,0.00
2013-3-6,29.1,23.2,18.7,24.4,17.0,13.3,83,79,73,30.04,30.04,5,0,5,0.00
2013-3-7,58.8,37.3,22.4,34.4,25.1,18.2,84,64,40,30.04,30.04,12,1,12,0.00
2013-3-8,62.7,42.3,28.2,41.6,32.0,23.9,85,68,45,30.04,30.04,9,2,14,0.08
2013-3-9,58.9,47.4,34.7,53.7,42.9,32.1,91,85,75,30.04,30.04,17,3,17,0.08
2013-3-10,34.7,26.2,20.0,32.2,23.5,17.3,92,89,84,30.04,30.04,20,4,20,0.06
2013-3-11,43.2,26.5,17.4,24.3,17.7,13.0,90,71,45,30.04,30.04,7,1,7,0.10
2013-3-12,41.1,29.8,21.9,24.3,20.6,16.3,87,70,47,30.04,30.04,13,1,13,0.00
2013-3-13,49.1,30.6,13.8,27.9,19.8,10.1,88,67,42,30.04,30.04,8,0,8,0.00
2013-3-14,62.9,43.6,31.6,40.9,31.4,22.2,82,64,41,30.04,30.04,8,2,8,0.00
2013-3-15,69.9,51.2,39.7,45.2,38.7,33.3,85,65,37,30.04,30.04,36,3,36,0.00
2013-3-16,42.0,31.5,23.1,37.8,25.7,17.3,88,79,67,30.04,30.04,22,5,22,0.00
2013-3-17,53.2,35.7,24.6,34.5,25.8,19.4,83,69,47,30.04,30.04,11,2,11,0.00
2013-3-18,49.4,40.0,30.9,32.7,26.9,18.3,90,63,52,30.04,30.04,12,2,12,0.06
2013-3-19,56.3,40.2,23.8,37.3,23.2,14.2,66,52,32,30.04,30.04,12,2,12,0.00
2013-3-20,40.9,27.0,17.2,19.1,10.7,4.2,72,52,33,30.04,30.04,10,2,10,0.00
2013-3-21,37.4,27.4,21.1,21.9,14.9,2.5,76,59,29,30.04,30.04,6,0,6,0.04
2013-3-22,37.1,30.4,23.8,26.5,19.9,15.5,78,65,53,30.04,30.04,4,0,4,0.00
2013-3-23,33.5,30.5,28.5,28.5,23.0,17.7,89,74,54,30.04,30.04,14,2,14,0.00
2013-3-24,32.5,26.5,19.9,26.1,18.5,10.0,89,73,52,30.04,30.04,14,4,14,0.04
2013-3-25,33.3,27.0,6.2,22.4,19.3,14.5,85,72,61,30.04,30.04,11,3,13,0.00
2013-3-26,48.7,31.5,19.5,26.4,18.9,13.7,81,62,38,30.04,30.04,8,1,8,0.00
2013-3-27,58.6,38.6,26.0,34.8,25.8,19.9,80,62,41,30.04,30.04,10,1,10,0.00
2013-3-28,70.8,46.1,29.1,38.3,30.4,24.8,85,59,29,30.04,30.04,17,1,17,0.00
2013-3-29,76.8,54.7,33.5,44.9,33.2,21.4,64,46,27,30.04,30.04,10,2,10,0.00
2013-3-30,68.2,56.7,49.6,51.8,43.5,35.7,90,64,36,30.04,30.04,18,3,18,0.65
2013-3-31,62.1,49.4,33.6,41.1,33.9,24.9,84,58,31,30.04,30.04,19,4,19,0.02